TOURFACTS.DK  
Stats and Facts from Tour de France.

Tour de France 2019 starts in 349 days
  Riders   Stages   Teams   Summits   Yearly  


 
Search by year

After 2018 - Stage 13:
 15000 starters.
  5163 different riders.
  639 teams.
  2245 stages.
  456 restdays.
  441769.60 km.
  5677 abandonnees.


Top 3
GC
Christopher Froome86:20:55
Rigoberto Urán86:21:49
Romain Bardet86:23:15
Climb
Warren Barguil169 pt.
Primoz Roglic80 pt.
Thomas De Gendt64 pt.
Sprint
Michael Matthews359 pt.
André Greipel234 pt.
Edvald Boasson Hagen220 pt.
Youth
Simon Yates86:27:09
Louis Meintjes86:29:15
Emanuel Buchmann86:54:16
Facts from Tour de France 2013
  |   Stages.  |   Stage winners.  |   Days in yellow  |   Average speed.  |   Route.  |   Teams.  |   All riders.  |   Rookies.  |  

  |   Withdrawls.  |   GC.  |   Polka  |   Green  |   White  |   Summits. (In tour)  |   Miscellaneous.  |  

Stage 20 on July 20th. 2013
         Owning:    Christopher Froome    
Pick a stage:  1 2 3 4 5 6 7 8 9 10 11 12 13 14 15 16 17 18 19 20 21
From: Annecy    To: Annecy - SemnozDist:125.00 km.
Cat: 2Côte du PugetFRAPierre Rolland
5 points
 
Cat: 3Col de LeschauxESPIgor Anton
2 points
 
Cat: 3Côte d'Aillon-le-VieuxFRAPierre Rolland
2 points
 
Cat: 3Col des PrésFRAPierre Rolland
2 points
 
Cat: 1Le Mont Revard - Chambery GERJens Voigt
10 points
 
Cat: HAnnecy-SemnozCOLNairo Quintana
50 points
 

Average speed for all riders in stage:  31,815 km./hr.
    Place:Name:Team:Time:Km/h:
COLNairo QuintanaESPMovistar Team03:39:04  +  00:00:00=34,236 
2 AUSRichie PorteGBRSky Procycling03:39:04  +  00:00:00=34,236 
ESPJoaquim RodriguezRUSTeam Katusha03:39:22  +  00:00:18=34,189 
KENChristopher FroomeGBRSky Procycling03:39:33  +  00:00:29=34,161 
5 ESPAlejandro ValverdeESPMovistar Team03:40:46  +  00:01:42=33,973 
6 USAAndrew TalanskyUSAGarmin Sharp03:41:31  +  00:02:27=33,857 
7 ESPAlberto ContadorDNKTeam Saxo-Tinkoff03:41:32  +  00:02:28=33,855 
8 FRAJohn GadretFRAAg2r La Mondiale03:41:52  +  00:02:48=33,804 
9 ESPJesus  HernandezDNKTeam Saxo-Tinkoff03:41:59  +  00:02:55=33,786 
10 CZERoman KreuzigerDNKTeam Saxo-Tinkoff03:41:59  +  00:02:55=33,786 
11 FRARomain BardetFRAAg2r La Mondiale03:42:05  +  00:03:01=33,771 
12 FRAChristophe RiblonFRAAg2r La Mondiale03:42:26  +  00:03:22=33,718 
13 ESPMikel NieveESPEuskaltel - Euskadi03:42:28  +  00:03:24=33,713 
14 ESPDaniel MorenoRUSTeam Katusha03:42:28  +  00:03:24=33,713 
15 BELJan BakelantsLUXRadioShack Leopard03:42:55  +  00:03:51=33,645 
16 NEDBauke MollemaNLDBelkin Pro Cycling03:43:00  +  00:03:56=33,632 
17 SUIJakob FuglsangKAZAstana Pro Team03:43:00  +  00:03:56=33,632 
18 POLMichal KwiatkowskiBELOmega Pharma – Quick Step03:43:07  +  00:04:03=33,615 
19 ESPDaniel NavarroFRACofidis – Solutions Crédits03:43:35  +  00:04:31=33,545 
20 FRAAlexis VuillermozFRASojasun03:43:40  +  00:04:36=33,532 
21 LUXAndy SchleckLUXRadioShack Leopard03:43:54  +  00:04:50=33,497 
22 BELMaxime MonfortLUXRadioShack Leopard03:43:54  +  00:04:50=33,497 
23 NEDWout PoelsNLDVacansoleil - DCM03:44:37  +  00:05:33=33,390 
24 COLJosé SerpaITALampre-Merida03:44:44  +  00:05:40=33,373 
25 FRANicolas RocheDNKTeam Saxo-Tinkoff03:45:02  +  00:05:58=33,328 
26 FRAArnold JeannessonFRAFDJ.fr03:45:15  +  00:06:11=33,296 
27 ESPLuis Angel MateFRACofidis – Solutions Crédits03:45:37  +  00:06:33=33,242 
28 NORLars Petter NordhaugNLDBelkin Pro Cycling03:45:46  +  00:06:42=33,220 
29 NEDLaurens ten DamNLDBelkin Pro Cycling03:45:46  +  00:06:42=33,220 
30 ESPIgor AntonESPEuskaltel - Euskadi03:45:46  +  00:06:42=33,220 
31 SVKPeter VelitsBELOmega Pharma – Quick Step03:45:46  +  00:06:42=33,220 
32 GERJens VoigtLUXRadioShack Leopard03:46:12  +  00:07:08=33,156 
33 FRAGuillaume LevarletFRACofidis – Solutions Crédits03:46:29  +  00:07:25=33,115 
34 FRAAnthony DelaplaceFRASojasun03:46:31  +  00:07:27=33,110 
35 FRAHubert DupontFRAAg2r La Mondiale03:46:54  +  00:07:50=33,054 
36 ESPJuan José OrozESPEuskaltel - Euskadi03:47:43  +  00:08:39=32,936 
37 FRARudy MolardFRACofidis – Solutions Crédits03:48:03  +  00:08:59=32,888 
38 FRAPierre RollandFRATeam Europcar03:48:03  +  00:08:59=32,888 
39 FRACyril GautierFRATeam Europcar03:48:03  +  00:08:59=32,888 
40 AUSMichael RogersDNKTeam Saxo-Tinkoff03:48:03  +  00:08:59=32,888 
41 ITADavide MalacarneFRATeam Europcar03:48:22  +  00:09:18=32,842 
42 ESPHaimar ZubeldiaLUXRadioShack Leopard03:48:28  +  00:09:24=32,828 
43 AUSSimon ClarkeAUSOrica - GreenEDGE03:48:37  +  00:09:33=32,806 
44 FRAJonathan HivertFRASojasun03:48:47  +  00:09:43=32,782 
45 FRASylvain ChavanelBELOmega Pharma – Quick Step03:50:00  +  00:10:56=32,609 
46 BELSep VanmarckeNLDBelkin Pro Cycling03:50:40  +  00:11:36=32,514 
47 FRAJulien SimonFRASojasun03:50:44  +  00:11:40=32,505 
48 FRAPierrick FédrigoFRAFDJ.fr03:50:44  +  00:11:40=32,505 
49 BELBart De ClercqBELLotto-Belisol Team03:50:44  +  00:11:40=32,505 
50 FRAJérôme CoppelFRACofidis – Solutions Crédits03:50:44  +  00:11:40=32,505 
51 NEDTom DumoulinNLDArgos–Shimano03:51:03  +  00:11:59=32,461 
52 RUSEduard VorganovRUSTeam Katusha03:51:17  +  00:12:13=32,428 
53 ESPDavid LopezGBRSky Procycling03:51:48  +  00:12:44=32,355 
54 GERAndréas KlödenLUXRadioShack Leopard03:52:04  +  00:13:00=32,318 
55 USATejay Van GarderenUSABMC Racing Team03:52:04  +  00:13:00=32,318 
56 PORRui CostaESPMovistar Team03:52:34  +  00:13:30=32,249 
57 BLRKanstantin SivtsovGBRSky Procycling03:52:41  +  00:13:37=32,233 
58 CANDavid VeilleuxFRATeam Europcar03:53:13  +  00:14:09=32,159 
59 USATom DanielsonUSAGarmin Sharp03:53:18  +  00:14:14=32,147 
60 ESPMarkel IrizarLUXRadioShack Leopard03:53:26  +  00:14:22=32,129 
61 FRAAlexandre GeniezFRAFDJ.fr03:53:34  +  00:14:30=32,111 
62 BELPhilippe GilbertUSABMC Racing Team03:55:51  +  00:16:47=31,800 
63 FRASébastien MinardFRAAg2r La Mondiale03:55:51  +  00:16:47=31,800 
64 ESPRuben PerezESPEuskaltel - Euskadi03:55:51  +  00:16:47=31,800 
65 ESPMikel AstarlozaESPEuskaltel - Euskadi03:55:51  +  00:16:47=31,800 
66 RUSYury TrofimovRUSTeam Katusha03:55:51  +  00:16:47=31,800 
67 FRARomain SicardESPEuskaltel - Euskadi03:55:53  +  00:16:49=31,795 
68 BELFrederik WillemsBELLotto-Belisol Team03:57:30  +  00:18:26=31,579 
69 ITAManuel QuinziatoUSABMC Racing Team03:57:30  +  00:18:26=31,579 
70 AUSSimon GerransAUSOrica - GreenEDGE03:57:30  +  00:18:26=31,579 
71 RSADaryl ImpeyAUSOrica - GreenEDGE03:57:30  +  00:18:26=31,579 
72 NEDJohnny HoogerlandNLDVacansoleil - DCM03:57:30  +  00:18:26=31,579 
73 CRCAndrey AmadorESPMovistar Team03:57:30  +  00:18:26=31,579 
74 ESPImanol ErvitiESPMovistar Team03:57:30  +  00:18:26=31,579 
75 NEDKoen De KortNLDArgos–Shimano03:57:30  +  00:18:26=31,579 
76 NEDLars BoomNLDBelkin Pro Cycling03:57:30  +  00:18:26=31,579 
77 ESPRubén PlazaESPMovistar Team03:57:30  +  00:18:26=31,579 
78 NEDRobert GesinkNLDBelkin Pro Cycling03:57:30  +  00:18:26=31,579 
79 ESPJon Izaguirre InsaustiESPEuskaltel - Euskadi03:57:30  +  00:18:26=31,579 
80 RUSPavel BruttRUSTeam Katusha03:57:30  +  00:18:26=31,579 
81 DENLars BakBELLotto-Belisol Team03:57:30  +  00:18:26=31,579 
82 POLPrzemyslaw NiemiecITALampre-Merida03:57:30  +  00:18:26=31,579 
83 ITADamiano CunegoITALampre-Merida03:57:30  +  00:18:26=31,579 
84 ITAManuele MoriITALampre-Merida03:57:30  +  00:18:26=31,579 
85 CANRyder HesjedalUSAGarmin Sharp03:57:30  +  00:18:26=31,579 
86 SUISteve MorabitoUSABMC Racing Team03:57:30  +  00:18:26=31,579 
87 LUXLaurent DidierLUXRadioShack Leopard03:57:30  +  00:18:26=31,579 
88 AUSCadel EvansUSABMC Racing Team03:57:30  +  00:18:26=31,579 
89 AUSAdam HansenBELLotto-Belisol Team03:57:30  +  00:18:26=31,579 
90 USABrent BookwalterUSABMC Racing Team03:57:30  +  00:18:26=31,579 
91 JPNYukiya ArashiroFRATeam Europcar03:57:30  +  00:18:26=31,579 
92 FRAKévin RezaFRATeam Europcar03:57:30  +  00:18:26=31,579 
93 FRAJulien El FarèsFRASojasun03:57:30  +  00:18:26=31,579 
94 FRAMaxime MederelFRASojasun03:57:30  +  00:18:26=31,579 
95 FRABrice FeilluFRASojasun03:57:30  +  00:18:26=31,579 
96 AUSCameron MeyerAUSOrica - GreenEDGE03:57:30  +  00:18:26=31,579 
97 ENGDaniel MartinUSAGarmin Sharp03:57:30  +  00:18:26=31,579 
98 PORSergio PaulinhoDNKTeam Saxo-Tinkoff03:57:30  +  00:18:26=31,579 
99 GERTony MartinBELOmega Pharma – Quick Step03:57:30  +  00:18:26=31,579 
100 ESPEgoitz GarciaFRACofidis – Solutions Crédits03:57:30  +  00:18:26=31,579 
101 ARGJuan Antonio FlechaNLDVacansoleil - DCM03:57:30  +  00:18:26=31,579 
102 ENGIan StannardGBRSky Procycling03:57:39  +  00:18:35=31,559 
103 ESPJonathan CastroviejoESPMovistar Team03:57:39  +  00:18:35=31,559 
104 FRAJérémy RoyFRAFDJ.fr03:57:39  +  00:18:35=31,559 
105 WALGeraint ThomasGBRSky Procycling03:57:39  +  00:18:35=31,559 
106 IOMPeter KennaughGBRSky Procycling03:57:39  +  00:18:35=31,559 
107 NEDBram TankinkNLDBelkin Pro Cycling03:58:42  +  00:19:38=31,420 
108 URSGatis SmukulisRUSTeam Katusha03:58:59  +  00:19:55=31,383 
109 SVKPeter SaganITACannondale Pro Cycling03:59:08  +  00:20:04=31,363 
110 ITAMoreno MoserITACannondale Pro Cycling03:59:08  +  00:20:04=31,363 
111 DENBrian VandborgITACannondale Pro Cycling03:59:08  +  00:20:04=31,363 
112 ITAFabio SabatiniITACannondale Pro Cycling03:59:08  +  00:20:04=31,363 
113 FRABlel KadriFRAAg2r La Mondiale03:59:21  +  00:20:17=31,335 
114 FRAJérôme CousinFRATeam Europcar03:59:21  +  00:20:17=31,335 
115 ESPJosé Joaquin RojasESPMovistar Team03:59:23  +  00:20:19=31,331 
116 ITAMatteo TosattoDNKTeam Saxo-Tinkoff03:59:34  +  00:20:30=31,307 
117 ITADaniele BennatiDNKTeam Saxo-Tinkoff03:59:40  +  00:20:36=31,293 
118 FRAArthur VichotFRAFDJ.fr03:59:46  +  00:20:42=31,280 
119 BRAMurilo Antonio FischerFRAFDJ.fr03:59:46  +  00:20:42=31,280 
120 FRAThomas VoecklerFRATeam Europcar04:00:30  +  00:21:26=31,185 
121 URSRein TaaramäeFRACofidis – Solutions Crédits04:01:05  +  00:22:01=31,110 
122 BELThomas De GendtNLDVacansoleil - DCM04:02:36  +  00:23:32=30,915 
123 GERMarcus BurghardtUSABMC Racing Team04:02:36  +  00:23:32=30,915 
124 NEDTom LeezerNLDBelkin Pro Cycling04:02:43  +  00:23:39=30,900 
125 SLOKristjan KorenITACannondale Pro Cycling04:03:14  +  00:24:10=30,835 
126 POLMaciej BodnarITACannondale Pro Cycling04:03:14  +  00:24:10=30,835 
127 ITAFrancesco GavazziKAZAstana Pro Team04:03:14  +  00:24:10=30,835 
128 FRASamuel DumoulinFRAAg2r La Mondiale04:03:23  +  00:24:19=30,816 
129 ESPAlberto LosadaRUSTeam Katusha04:03:47  +  00:24:43=30,765 
130 ITAAlan MarangoniITACannondale Pro Cycling04:03:59  +  00:24:55=30,740 
131 ITAAlessandro De MarchiITACannondale Pro Cycling04:03:59  +  00:24:55=30,740 
132 BLRAliaksandr KuchynskiRUSTeam Katusha04:04:08  +  00:25:04=30,721 
133 BELJürgen RoelandtsBELLotto-Belisol Team04:04:08  +  00:25:04=30,721 
134 FRATony GallopinLUXRadioShack Leopard04:04:08  +  00:25:04=30,721 
135 NEDBoy van PoppelNLDVacansoleil - DCM04:04:08  +  00:25:04=30,721 
136 NEDRoy CurversNLDArgos–Shimano04:04:08  +  00:25:04=30,721 
137 GERAndré GreipelBELLotto-Belisol Team04:04:08  +  00:25:04=30,721 
138 NEDLieuwe WestraNLDVacansoleil - DCM04:04:08  +  00:25:04=30,721 
139 AUSBrett LancasterAUSOrica - GreenEDGE04:04:08  +  00:25:04=30,721 
140 AUSMatthew GossAUSOrica - GreenEDGE04:04:08  +  00:25:04=30,721 
141 UZBSergey LagutinNLDVacansoleil - DCM04:04:08  +  00:25:04=30,721 
142 FRACyril LemoineFRASojasun04:04:08  +  00:25:04=30,721 
143 KAZDmitriy MuravyevKAZAstana Pro Team04:04:08  +  00:25:04=30,721 
144 FRAAmaël MoinardUSABMC Racing Team04:04:08  +  00:25:04=30,721 
145 FRAYohann GèneFRATeam Europcar04:04:08  +  00:25:04=30,721 
146 ITADavide CimolaiITALampre-Merida04:04:08  +  00:25:04=30,721 
147 FRAJean-Marc MarinoFRASojasun04:05:09  +  00:26:05=30,594 
148 MLTDavid MillarUSAGarmin Sharp04:05:32  +  00:26:28=30,546 
149 AUSStuart O'GradyAUSOrica - GreenEDGE04:05:32  +  00:26:28=30,546 
150 BELGert SteegmansBELOmega Pharma – Quick Step04:05:32  +  00:26:28=30,546 
151 NZLGregory HendersonBELLotto-Belisol Team04:05:32  +  00:26:28=30,546 
152 BELMaarten WynantsNLDBelkin Pro Cycling04:05:32  +  00:26:28=30,546 
153 GERSimon GeschkeNLDArgos–Shimano04:05:32  +  00:26:28=30,546 
154 SUIMichael AlbasiniAUSOrica - GreenEDGE04:05:32  +  00:26:28=30,546 
155 GERJohannes FröhlingerNLDArgos–Shimano04:05:32  +  00:26:28=30,546 
156 NEDNiki TerpstraBELOmega Pharma – Quick Step04:05:32  +  00:26:28=30,546 
157 NEDAlbert TimmerNLDArgos–Shimano04:05:32  +  00:26:28=30,546 
158 GERJohn DegenkolbNLDArgos–Shimano04:05:32  +  00:26:28=30,546 
159 GERMarcel KittelNLDArgos–Shimano04:05:32  +  00:26:28=30,546 
160 FRAJérôme PineauBELOmega Pharma – Quick Step04:05:32  +  00:26:28=30,546 
161 CANSvein TuftAUSOrica - GreenEDGE04:05:32  +  00:26:28=30,546 
162 NORAlexander KristoffRUSTeam Katusha04:05:32  +  00:26:28=30,546 
163 IOMMark CavendishBELOmega Pharma – Quick Step04:05:32  +  00:26:28=30,546 
164 ITAElia FavilliITALampre-Merida04:05:41  +  00:26:37=30,527 
165 ITARoberto FerrariITALampre-Merida04:05:42  +  00:26:38=30,525 
166 ITAMatteo TrentinBELOmega Pharma – Quick Step04:05:53  +  00:26:49=30,502 
167 ESPJuan LobatoESPEuskaltel - Euskadi04:06:03  +  00:26:59=30,482 
168 ITAEnrico GasparottoKAZAstana Pro Team04:06:14  +  00:27:10=30,459 
169 KAZAssan BazayevKAZAstana Pro Team04:06:14  +  00:27:10=30,459 
170 URSRamunas NavardauskasUSAGarmin Sharp04:07:51  +  00:28:47=30,260 


Todays birthdays.

1889  Arthur Godart
1901  Félix Baud
1904  Fernand Fayolle
1921  Pietro Giudici
1932  Félix Le Buhotel
1932  Piet Van Den Brekel
1954  Hennie Stamsnijder
1965  Francis Moreau
1980  Andrey Kashechkin
1981  Stefan Schumacher




Visits: